sat.trackr.live / text

‹ back to catalog

STARLINK-11345 [DTC]

NORAD 62093 · 2024-220F

PAYLOAD ACTIVE UNKNOWN

§ Identity

Operator
Country
US
Launch date
2024-11-25
Launch site
AFETR
Launch vehicle
Mass (kg)
RCS (m²)

Purposes: comms

External: N2YO · Heavens-Above · Gunter

§ Orbital elements

Epoch: 2026-05-24T20:46:30.509760Z

Period
91.67 min
Inclination
42.9986°
Eccentricity
0.0001412
Mean motion
15.70873836 rev/d
Perigee alt
355.4 km
Apogee alt
357.3 km
Semi-major
6,734.5 km
B*
1.2527e-3
RAAN
303.9122°
Arg perigee
282.8132°
Mean anomaly
77.2578°
Rev number
8,693

§ Raw data

STARLINK-11345 [DTC]1 62093U 24220F   26144.86563090  .00163733  00000+0  12527-2 0  99952 62093  42.9986 303.9122 0001412 282.8132  77.2578 15.70873836 86934

JSON: /api/v1/satellites/62093 · /tle

For live sub-satellite position, see the globe view (requires WebGL).

§ Visibility from observer

Set your observer location to see the next 7 days of passes ≥ 10°. The values pass through the URL so the page stays shareable.

No JS? Fill the form by hand. The geolocation button needs JavaScript.